QPF
0.00 0.00 0.00 0.00 0.00 0.00 0.00 0.00 0.00 0.00 0.00 0.00 0.00 0.00 0.00 0.00 0.00 0.00 0.00 0.00 0.00 0.00 0.00 0.00 0.00 0.00 0.00 0.00 0.00 0.00 0.00 0.00 0.00 0.00 0.00 0.00 0.00 0.00 0.00 0.00 0.00 0.00 0.00 0.00
0.00 0.00 0.00 0.00 0.00 0.00 0.00 0.00 0.00 0.00 0.00 0.00 0.00 0.00 0.00 0.00 0.00 0.00 0.00 0.00 0.00 0.00 0.00 0.00 0.00 0.00 0.00 0.00 0.00 0.00 0.00 0.00 0.00 0.00 0.00 0.00 0.00 0.00 0.00 0.00 0.00 0.00 0.00 0.00
0.00 0.00 0.00 0.00 0.00 0.00 0.00 0.00 0.00 0.00 0.00 0.00 0.00 0.00 0.00 0.00 0.00 0.00 0.00 0.00 0.00 0.00 0.00 0.00 0.00 0.00 0.00 0.00 0.00 0.00 0.00 0.00 0.00 0.00 0.00 0.00 0.00 0.00 0.00 0.00 0.00 0.00 0.00 0.00
0.00 0.00 0.00 0.00 0.00 0.00 0.00 0.00 0.00 0.00 0.00 0.00 0.00 0.00 0.00 0.00 0.00 0.00 0.00 0.00 0.00 0.00 0.00 0.00 0.00 0.00 0.00 0.00 0.00 0.00 0.00 0.00 0.00 0.00 0.00 0.00 0.00 0.00 0.00 0.00 0.00 0.00 0.00 0.00
0.00 0.00 0.00 0.00 0.00 0.00 0.00 0.00 0.00 0.00 0.00 0.00 0.00 0.00 0.00 0.00 0.00 0.00 0.00 0.00 0.00 0.00 0.00 0.00 0.00 0.00 0.00 0.00 0.00 0.00 0.00 0.00 0.00 0.00 0.00 0.00 0.00 0.00 0.00 0.00 0.00 0.00 0.00 0.00
0.00 0.00 0.00 0.00 0.00 0.00 0.00 0.00 0.00 0.00 0.00 0.00 0.00 0.00 0.00 0.00 0.00 0.00 0.00 0.00 0.00 0.00 0.00 0.00 0.00 0.00 0.00 0.00 0.00 0.00 0.00 0.00 0.00 0.00 0.00 0.00 0.00 0.00 0.00 0.00 0.00 0.00 0.00 0.00
0.00 0.00 0.00 0.00 0.00 0.00 0.00 0.00 0.00 0.00 0.00 0.00 0.00 0.00 0.00 0.00 0.00 0.00 0.00 0.00 0.00 0.00 0.00 0.00 0.00 0.00 0.00 0.00 0.00 0.00 0.00 0.00 0.00 0.00 0.00 0.00 0.00 0.00 0.00 0.00 0.00 0.00 0.00 0.00
0.00 0.00 0.00 0.00 0.00 0.00 0.00 0.00 0.00 0.00 0.00 0.00 0.00 0.00 0.00 0.00 0.00 0.00 0.00 0.00 0.00 0.00 0.00 0.00 0.00 0.00 0.00 0.00 0.00 0.00 0.00 0.00 0.00 0.00 0.00 0.00 0.00 0.00 0.00 0.00 0.00 0.00 0.00 0.00
0.00 0.00 0.00 0.00 0.00 0.00 0.00 0.00 0.00 0.00 0.00 0.00 0.00 0.00 0.00 0.00 0.00 0.00 0.00 0.00 0.00 0.00 0.00 0.00 0.00 0.00 0.00 0.00 0.00 0.00 0.00 0.00 0.00 0.00 0.00 0.00 0.00 0.00 0.00 0.00 0.00 0.00 0.00 0.00
0.00 0.00 0.00 0.00 0.00 0.00 0.00 0.00 0.00 0.00 0.00 0.00 0.00 0.00 0.00 0.00 0.00 0.00 0.00 0.00 0.00 0.00 0.00 0.00 0.00 0.00 0.00 0.00 0.00 0.00 0.00 0.00 0.00 0.00 0.00 0.00 0.00 0.00 0.00 0.00 0.00 0.00 0.00 0.00
0.00 0.00 0.00 0.00 0.00 0.00 0.00 0.00 0.00 0.00 0.00 0.00 0.00 0.00 0.00 0.00 0.00 0.00 0.00 0.00 0.00 0.00 0.00 0.00 0.00 0.00 0.00 0.00 0.00 0.00 0.00 0.00 0.00 0.00 0.00 0.00 0.00 0.00 0.00 0.00 0.00 0.00 0.00 0.00
0.00 0.00 0.00 0.00 0.00 0.00 0.00 0.00 0.00 0.00 0.00 0.00 0.00 0.00 0.00 0.00 0.00 0.00 0.00 0.00 0.00 0.00 0.00 0.00 0.00 0.00 0.00 0.00 0.00 0.00 0.00 0.00 0.00 0.00 0.00 0.00 0.00 0.00 0.00 0.00 0.00 0.00 0.00 0.00
0.00 0.00 0.00 0.00 0.00 0.00 0.00 0.00 0.00 0.00 0.00 0.00 0.00 0.00 0.00 0.00 0.00 0.00 0.00 0.00 0.00 0.00 0.00 0.00 0.00 0.00 0.00 0.00 0.00 0.00 0.00 0.00 0.00 0.00 0.00 0.00 0.00 0.00 0.00 0.00 0.00 0.00 0.00 0.00
0.01 0.01 0.00 0.00 0.00 0.00 0.00 0.00 0.00 0.00 0.00 0.00 0.00 0.00 0.00 0.00 0.00 0.00 0.00 0.00 0.00 0.00 0.00 0.00 0.00 0.00 0.00 0.00 0.00 0.00 0.00 0.00 0.00 0.00 0.00 0.00 0.00 0.00 0.00 0.00 0.00 0.00 0.00 0.00
0.00 0.00 0.00 0.00 0.00 0.00 0.00 0.00 0.00 0.00 0.00 0.00 0.00 0.00 0.00 0.00 0.00 0.00 0.00 0.00 0.00 0.00 0.00 0.00 0.00 0.00 0.00 0.00 0.00 0.00 0.00 0.00 0.00 0.00 0.00 0.00 0.00 0.00 0.00 0.00 0.00 0.00 0.00 0.00
0.00 0.00 0.00 0.00 0.00 0.00 0.00 0.00 0.00 0.00 0.00 0.00 0.00 0.00 0.00 0.00 0.00 0.00 0.00 0.00 0.00 0.00 0.00 0.00 0.00 0.00 0.00 0.01 0.00 0.00 0.00 0.00 0.00 0.00 0.00 0.00 0.00 0.00 0.00 0.00 0.00 0.00 0.00 0.00
0.01 0.00 0.00 0.00 0.00 0.00 0.00 0.00 0.00 0.02 0.02 0.03 0.01 0.00 0.00 0.00 0.00 0.00 0.00 0.00 0.00 0.00 0.00 0.00 0.00 0.00 0.02 0.02 0.00 0.00 0.00 0.00 0.00 0.00 0.00 0.00 0.00 0.00 0.00 0.00 0.00 0.00 0.00 0.00
0.03 0.02 0.01 0.01 0.00 0.00 0.00 0.00 0.00 0.03 0.11 0.09 0.03 0.00 0.00 0.00 0.00 0.00 0.00 0.00 0.00 0.00 0.00 0.00 0.00 0.00 0.00 0.01 0.00 0.00 0.00 0.00 0.00 0.00 0.00 0.00 0.00 0.00 0.00 0.00 0.00 0.00 0.00 0.00
0.02 0.02 0.02 0.01 0.00 0.00 0.00 0.00 0.00 0.00 0.01 0.01 0.01 0.00 0.00 0.00 0.00 0.00 0.00 0.00 0.00 0.00 0.00 0.00 0.00 0.00 0.01 0.00 0.00 0.00 0.00 0.00 0.00 0.00 0.00 0.00 0.00 0.00 0.00 0.00 0.00 0.00 0.00 0.00
0.02 0.03 0.02 0.01 0.01 0.02 0.02 0.01 0.02 0.04 0.03 0.02 0.00 0.00 0.00 0.00 0.00 0.00 0.00 0.01 0.01 0.01 0.00 0.01 0.02 0.00 0.00 0.00 0.00 0.00 0.00 0.00 0.00 0.00 0.00 0.00 0.00 0.00 0.00 0.00 0.00 0.00 0.00 0.00
0.02 0.02 0.01 0.02 0.03 0.02 0.04 0.04 0.03 0.01 0.04 0.02 0.00 0.00 0.00 0.00 0.01 0.01 0.01 0.02 0.02 0.02 0.00 0.01 0.01 0.00 0.00 0.00 0.00 0.00 0.00 0.00 0.00 0.00 0.00 0.00 0.00 0.00 0.00 0.00 0.00 0.00 0.00 0.00
0.02 0.02 0.01 0.02 0.02 0.01 0.01 0.01 0.01 0.03 0.01 0.01 0.00 0.00 0.00 0.00 0.00 0.02 0.05 0.04 0.02 0.01 0.00 0.03 0.01 0.00 0.00 0.00 0.00 0.00 0.00 0.00 0.00 0.00 0.00 0.00 0.00 0.00 0.00 0.00 0.00 0.00 0.00 0.00
0.03 0.07 0.03 0.00 0.00 0.01 0.01 0.00 0.00 0.01 0.02 0.02 0.01 0.00 0.00 0.00 0.01 0.07 0.07 0.07 0.03 0.01 0.01 0.01 0.00 0.00 0.00 0.00 0.00 0.00 0.01 0.01 0.00 0.00 0.00 0.00 0.00 0.00 0.00 0.00 0.00 0.00 0.00 0.00
0.09 0.10 0.07 0.01 0.00 0.00 0.00 0.00 0.00 0.00 0.04 0.01 0.01 0.01 0.01 0.02 0.06 0.07 0.05 0.02 0.04 0.04 0.01 0.00 0.00 0.02 0.05 0.06 0.03 0.01 0.00 0.00 0.00 0.00 0.00 0.00 0.00 0.00 0.00 0.00 0.00 0.00 0.00 0.00
0.13 0.10 0.06 0.00 0.00 0.00 0.00 0.00 0.00 0.00 0.00 0.00 0.00 0.00 0.01 0.01 0.01 0.02 0.02 0.02 0.03 0.01 0.02 0.03 0.02 0.03 0.03 0.01 0.00 0.00 0.00 0.00 0.00 0.00 0.00 0.00 0.00 0.00 0.00 0.00 0.00 0.00 0.00 0.00
0.12 0.09 0.02 0.00 0.00 0.00 0.00 0.00 0.00 0.00 0.00 0.00 0.00 0.01 0.01 0.01 0.01 0.00 0.00 0.00 0.00 0.00 0.00 0.00 0.00 0.00 0.00 0.00 0.00 0.00 0.00 0.00 0.00 0.00 0.00 0.00 0.00 0.00 0.00 0.00 0.00 0.00 0.00 0.00
0.16 0.02 0.00 0.00 0.00 0.00 0.00 0.00 0.00 0.01 0.02 0.01 0.02 0.02 0.02 0.02 0.01 0.00 0.00 0.00 0.00 0.00 0.00 0.00 0.00 0.00 0.00 0.00 0.00 0.00 0.00 0.00 0.00 0.00 0.00 0.00 0.00 0.00 0.00 0.00 0.00 0.00 0.00 0.00
MSLP
1024.28 1023.74 1023.26 1022.74 1022.19 1021.82 1021.86 1022.48 1022.73 1022.01 1021.97 1022.99 1024.35 1025.58 1025.30 1025.33 1025.41 1025.20 1025.07 1025.03 1024.99 1025.15 1025.45 1025.98 1026.51 1026.90 1027.00 1026.75 1027.03 1027.45 1027.85 1028.44 1028.64 1028.13 1027.79 1027.77 1028.28 1028.97 1029.79 1031.38 1032.06 1031.98 1030.89 1025.92
1024.55 1023.97 1023.38 1022.91 1022.44 1022.10 1022.33 1022.88 1022.84 1022.39 1022.41 1024.06 1025.33 1025.43 1025.33 1025.12 1025.10 1024.96 1024.86 1024.86 1024.92 1024.98 1025.22 1025.72 1025.93 1026.32 1026.51 1026.64 1026.98 1027.38 1027.77 1028.40 1028.63 1028.01 1028.10 1027.81 1027.95 1028.18 1028.74 1029.61 1030.46 1030.72 1030.31 1024.81
1024.88 1024.25 1023.51 1022.87 1022.47 1022.23 1022.41 1022.78 1023.26 1023.15 1023.22 1023.92 1024.54 1024.90 1025.06 1025.11 1024.97 1024.87 1024.79 1024.81 1024.84 1024.95 1025.09 1025.33 1025.74 1026.21 1026.60 1026.80 1027.19 1027.47 1027.72 1028.20 1028.15 1027.74 1027.08 1026.99 1027.48 1027.29 1027.71 1028.59 1029.39 1028.97 1026.45 1023.98
1025.01 1024.53 1023.84 1023.01 1022.27 1021.96 1022.41 1023.20 1024.05 1023.72 1024.55 1024.20 1023.97 1024.00 1024.22 1024.53 1024.70 1024.79 1024.79 1024.91 1024.81 1024.76 1024.91 1025.11 1025.43 1025.70 1026.52 1026.98 1027.22 1027.63 1028.15 1028.53 1027.99 1027.12 1026.52 1026.28 1025.86 1025.64 1026.19 1026.63 1026.39 1026.58 1024.21 1023.28
1025.27 1024.64 1024.00 1023.31 1022.33 1021.71 1022.49 1023.90 1024.27 1024.35 1024.29 1023.90 1023.81 1023.87 1023.82 1023.75 1023.88 1024.15 1024.38 1024.61 1024.32 1024.57 1024.76 1024.72 1025.08 1025.48 1026.10 1026.64 1027.76 1028.04 1028.27 1028.35 1028.08 1026.70 1025.59 1025.37 1024.53 1023.50 1023.97 1024.22 1024.08 1023.72 1022.91 1021.08
1025.50 1025.01 1024.33 1023.56 1022.80 1021.87 1023.23 1023.97 1023.96 1024.31 1024.55 1024.15 1024.06 1023.74 1023.46 1023.44 1023.45 1023.62 1023.60 1023.90 1024.10 1024.37 1024.40 1024.51 1024.68 1025.03 1025.54 1026.20 1027.19 1028.20 1028.82 1029.13 1028.91 1027.34 1025.83 1024.72 1022.98 1021.24 1021.63 1021.57 1021.27 1021.37 1021.74 1018.99
1025.82 1025.37 1024.86 1024.22 1023.52 1023.30 1024.04 1024.69 1024.68 1024.70 1024.86 1024.43 1023.81 1023.33 1023.29 1023.45 1023.69 1024.03 1024.05 1024.19 1024.46 1024.58 1024.46 1024.59 1024.75 1025.04 1025.35 1025.97 1026.67 1027.08 1028.13 1028.94 1029.08 1028.11 1026.53 1024.23 1020.28 1019.59 1019.26 1019.40 1018.83 1019.15 1018.85 1018.30
1026.05 1025.79 1025.34 1024.93 1024.43 1024.07 1024.21 1024.62 1024.99 1024.88 1024.82 1024.21 1023.63 1023.37 1023.39 1023.51 1023.70 1023.94 1024.04 1024.33 1024.65 1024.68 1025.02 1025.57 1025.63 1025.74 1025.78 1025.94 1026.59 1027.07 1027.47 1028.46 1028.91 1028.38 1026.94 1023.38 1019.47 1019.26 1019.28 1019.08 1017.82 1017.28 1017.37 1017.15
1026.23 1025.94 1025.72 1025.32 1025.04 1024.68 1024.66 1024.86 1024.90 1025.10 1024.90 1023.98 1023.25 1023.18 1023.21 1023.63 1024.06 1024.29 1024.27 1024.54 1024.61 1024.85 1025.49 1026.19 1026.62 1026.29 1025.71 1026.43 1027.07 1027.39 1027.60 1027.89 1028.69 1028.20 1027.25 1024.29 1019.97 1019.11 1018.87 1018.78 1018.08 1017.01 1016.83 1017.16
1026.29 1026.16 1025.95 1025.64 1025.21 1025.08 1025.27 1025.34 1025.20 1025.13 1025.26 1024.11 1023.53 1023.30 1023.12 1023.05 1023.46 1023.97 1024.43 1024.91 1025.21 1025.34 1026.08 1026.68 1026.64 1025.77 1024.81 1025.63 1026.44 1027.43 1027.94 1028.30 1028.05 1027.62 1026.18 1023.18 1019.36 1018.86 1018.91 1018.90 1017.78 1016.89 1016.87 1017.07
1025.97 1026.06 1026.05 1025.92 1025.75 1025.33 1025.23 1025.63 1025.67 1025.91 1025.48 1024.07 1023.34 1023.18 1023.10 1023.09 1023.18 1023.86 1024.34 1024.92 1025.17 1025.89 1026.31 1026.32 1025.73 1025.27 1024.27 1024.44 1024.66 1025.18 1025.68 1026.40 1026.45 1026.33 1025.09 1021.41 1018.51 1018.72 1018.38 1017.19 1016.81 1016.70 1016.78 1016.88
1025.62 1025.71 1025.86 1025.69 1025.78 1025.85 1025.37 1025.57 1025.62 1025.97 1026.35 1024.86 1023.45 1022.90 1022.60 1022.54 1022.67 1022.96 1023.49 1023.58 1023.83 1024.29 1025.08 1025.17 1024.76 1024.51 1023.75 1023.58 1023.83 1023.34 1023.60 1022.32 1022.49 1022.51 1019.98 1018.19 1017.64 1016.81 1016.37 1016.43 1016.46 1016.38 1016.39 1016.29
1025.22 1025.47 1025.58 1025.69 1025.54 1025.66 1025.81 1025.57 1025.36 1025.96 1026.33 1025.02 1023.92 1022.54 1022.14 1022.14 1022.39 1022.64 1023.43 1023.23 1022.67 1022.98 1022.75 1023.56 1023.88 1023.86 1022.88 1022.89 1022.00 1021.20 1020.68 1020.27 1020.37 1019.63 1017.93 1017.42 1016.85 1016.45 1016.14 1015.96 1015.85 1015.64 1015.68 1015.93
1025.19 1025.16 1025.47 1025.47 1025.52 1025.63 1025.56 1025.86 1025.52 1025.55 1026.08 1026.05 1023.66 1022.44 1022.22 1021.73 1021.76 1022.25 1022.67 1022.97 1022.93 1023.05 1023.15 1023.46 1023.51 1023.19 1022.02 1021.63 1020.78 1020.32 1019.83 1019.42 1018.28 1017.48 1017.12 1016.47 1015.99 1015.78 1015.57 1015.39 1015.40 1015.55 1015.64 1015.78
1025.35 1025.12 1025.10 1025.13 1025.37 1025.17 1025.44 1025.49 1025.12 1025.27 1025.28 1025.47 1024.10 1022.73 1021.62 1021.57 1021.97 1022.14 1022.39 1022.83 1023.37 1023.69 1023.80 1023.48 1022.99 1022.41 1022.15 1021.08 1020.48 1019.02 1019.21 1018.02 1018.09 1015.83 1016.42 1016.18 1015.48 1015.51 1015.36 1015.26 1015.22 1015.07 1015.10 1015.24
1025.22 1025.17 1024.97 1025.06 1025.25 1025.17 1024.94 1025.20 1024.64 1024.68 1024.94 1025.14 1024.21 1022.59 1021.75 1022.12 1021.94 1022.34 1022.69 1022.86 1023.02 1023.01 1023.02 1022.84 1022.13 1021.80 1021.69 1020.57 1018.47 1017.52 1017.17 1017.09 1016.83 1015.52 1015.90 1015.96 1015.52 1015.33 1015.26 1015.03 1014.79 1014.49 1014.55 1014.73
1025.40 1025.27 1025.09 1024.94 1025.18 1025.15 1024.83 1024.42 1024.35 1024.46 1024.49 1024.56 1023.86 1022.93 1022.21 1022.00 1022.21 1022.49 1023.05 1023.09 1023.03 1022.91 1022.77 1022.17 1021.83 1021.63 1021.62 1019.87 1017.35 1017.18 1016.76 1016.69 1016.37 1015.94 1015.87 1015.50 1015.56 1015.10 1014.88 1014.73 1014.60 1014.64 1014.71 1014.80
1025.50 1025.41 1025.17 1025.01 1025.15 1024.77 1024.74 1023.93 1023.53 1023.94 1024.12 1024.22 1023.78 1022.67 1022.52 1022.12 1022.66 1022.86 1022.92 1023.34 1023.35 1022.94 1022.48 1021.85 1021.57 1021.14 1020.55 1018.42 1016.61 1016.50 1016.21 1015.73 1015.74 1015.67 1015.75 1015.57 1015.66 1015.33 1015.21 1015.27 1015.40 1015.44 1015.42 1015.46
1025.49 1025.25 1025.18 1024.73 1024.71 1024.85 1023.92 1023.67 1023.63 1023.75 1024.13 1024.02 1023.41 1022.74 1022.45 1022.19 1022.45 1022.72 1023.11 1023.18 1023.35 1022.74 1022.03 1021.55 1021.41 1020.40 1018.93 1016.86 1016.68 1016.42 1016.24 1016.15 1015.76 1015.66 1015.76 1015.95 1016.04 1016.14 1016.15 1016.13 1016.12 1016.14 1016.01 1015.82
1025.14 1025.34 1025.17 1024.45 1023.74 1023.38 1023.64 1023.66 1023.81 1023.91 1023.54 1023.66 1022.68 1021.99 1022.14 1022.32 1022.50 1022.77 1023.29 1023.06 1022.60 1021.82 1020.77 1020.90 1020.26 1018.40 1016.95 1016.75 1016.64 1016.41 1016.49 1016.34 1016.03 1016.07 1016.74 1016.81 1016.88 1016.84 1016.62 1016.51 1016.57 1016.34 1015.89 1015.46
1025.26 1025.07 1024.71 1023.56 1023.26 1023.42 1023.39 1023.38 1023.32 1023.12 1022.38 1022.10 1021.60 1021.59 1021.64 1021.56 1021.99 1022.31 1022.35 1021.86 1021.88 1021.32 1020.08 1020.23 1019.30 1018.21 1017.37 1017.07 1016.98 1016.99 1017.13 1017.04 1017.03 1017.08 1017.23 1017.23 1017.14 1016.97 1016.66 1016.23 1015.87 1015.48 1014.99 1014.59
1024.92 1024.91 1024.49 1023.91 1023.66 1023.72 1023.94 1023.25 1022.86 1022.38 1021.77 1021.18 1020.92 1020.91 1021.03 1021.22 1021.21 1021.61 1021.38 1021.10 1021.00 1020.22 1019.78 1019.92 1018.90 1018.04 1017.74 1017.87 1017.98 1018.04 1018.10 1018.21 1018.24 1017.94 1017.57 1016.92 1016.55 1016.29 1016.07 1015.77 1015.43 1015.03 1014.50 1014.01
1024.73 1024.97 1024.67 1024.27 1024.21 1024.18 1023.89 1023.39 1022.62 1021.82 1021.11 1021.08 1021.07 1021.09 1021.11 1021.14 1021.41 1021.29 1021.03 1020.70 1020.19 1019.59 1019.51 1019.09 1018.72 1018.47 1018.46 1018.39 1018.16 1018.11 1017.42 1017.10 1017.04 1016.86 1016.35 1015.94 1015.82 1015.70 1015.59 1015.33 1014.93 1014.31 1013.79 1013.17
1024.11 1024.21 1024.35 1023.97 1024.07 1023.66 1023.29 1022.76 1022.43 1022.28 1021.79 1021.42 1021.35 1021.61 1021.83 1021.53 1021.57 1021.25 1020.95 1020.24 1020.08 1020.00 1019.89 1019.20 1019.09 1018.83 1018.83 1018.63 1018.12 1017.78 1017.01 1016.78 1016.73 1016.39 1015.94 1015.55 1015.29 1014.97 1014.73 1014.49 1013.95 1013.69 1013.32 1012.68
1023.41 1023.30 1023.07 1023.46 1022.91 1022.89 1023.00 1022.88 1022.72 1022.39 1022.18 1022.02 1021.91 1022.09 1022.38 1022.35 1022.22 1021.74 1021.71 1021.06 1020.29 1019.96 1019.56 1019.07 1018.63 1018.24 1017.91 1017.65 1017.12 1016.70 1016.32 1016.10 1015.93 1015.62 1015.44 1015.04 1014.62 1014.35 1013.89 1013.47 1013.18 1012.82 1012.52 1012.18
1022.57 1022.47 1022.57 1022.67 1023.18 1023.27 1023.31 1022.93 1022.87 1022.33 1022.19 1022.36 1022.48 1022.79 1022.96 1022.87 1022.50 1022.56 1022.00 1021.53 1020.61 1019.64 1019.22 1018.31 1018.11 1017.81 1017.30 1016.87 1016.36 1015.98 1015.52 1015.23 1014.92 1014.63 1014.33 1013.99 1013.72 1013.40 1012.88 1012.44 1012.21 1011.82 1011.77 1011.34
1021.01 1021.25 1021.30 1021.61 1022.04 1022.07 1021.98 1021.95 1021.98 1021.57 1022.13 1022.33 1022.45 1022.52 1022.24 1022.02 1021.98 1021.97 1021.34 1020.46 1019.37 1018.50 1017.88 1017.53 1017.18 1016.83 1016.37 1016.00 1015.69 1015.40 1015.05 1014.60 1014.09 1013.72 1013.30 1012.87 1012.34 1012.06 1011.95 1011.67 1010.76 1010.75 1010.45 1010.19
Thickness
5610 5613 5615 5617 5621 5623 5621 5612 5603 5614 5612 5590 5565 5566 5585 5582 5578 5579 5579 5579 5581 5581 5579 5575 5548 5568 5555 5569 5567 5563 5557 5534 5521 5553 5557 5557 5546 5541 5537 5489 5507 5484 5483 5536
5609 5613 5616 5618 5620 5622 5620 5615 5612 5614 5612 5580 5567 5584 5584 5585 5582 5582 5582 5581 5581 5580 5579 5576 5574 5570 5566 5565 5562 5559 5554 5530 5515 5557 5546 5549 5548 5544 5548 5539 5515 5494 5489 5538
5606 5610 5615 5619 5620 5621 5619 5616 5603 5608 5603 5596 5591 5592 5588 5582 5582 5583 5583 5581 5581 5578 5576 5577 5572 5567 5560 5558 5556 5554 5549 5539 5545 5549 5565 5547 5543 5544 5539 5532 5481 5494 5528 5534
5603 5606 5611 5616 5621 5622 5618 5609 5601 5603 5584 5600 5603 5598 5596 5589 5583 5582 5581 5577 5576 5578 5576 5572 5569 5570 5554 5552 5552 5547 5538 5529 5543 5546 5548 5549 5555 5556 5542 5531 5534 5520 5535 5533
5596 5600 5605 5611 5618 5622 5611 5605 5601 5593 5595 5600 5603 5595 5595 5594 5591 5583 5582 5578 5582 5576 5575 5580 5574 5568 5559 5553 5536 5533 5531 5526 5535 5539 5555 5548 5547 5556 5552 5551 5552 5545 5556 5568
5587 5592 5597 5602 5608 5615 5601 5596 5597 5594 5589 5594 5590 5589 5593 5591 5590 5587 5587 5581 5581 5577 5574 5574 5572 5567 5561 5556 5536 5524 5518 5509 5515 5513 5539 5537 5547 5567 5561 5557 5555 5553 5539 5571
5577 5581 5585 5590 5595 5597 5590 5584 5582 5585 5589 5584 5589 5594 5592 5586 5582 5578 5578 5576 5572 5570 5568 5565 5563 5559 5555 5550 5539 5534 5519 5514 5508 5501 5514 5541 5587 5582 5576 5566 5571 5564 5561 5561
5565 5569 5573 5575 5579 5581 5580 5576 5573 5573 5573 5579 5586 5586 5583 5581 5577 5575 5573 5569 5560 5559 5557 5544 5544 5540 5544 5544 5533 5527 5522 5509 5499 5486 5477 5541 5583 5569 5560 5556 5573 5567 5564 5564
5551 5556 5559 5563 5565 5567 5567 5564 5565 5562 5562 5573 5581 5576 5575 5562 5557 5561 5563 5557 5553 5551 5539 5535 5540 5529 5548 5532 5519 5512 5511 5502 5485 5486 5487 5514 5564 5557 5549 5547 5535 5561 5558 5551
5537 5540 5543 5547 5552 5554 5554 5551 5551 5551 5550 5559 5568 5561 5562 5563 5559 5554 5551 5541 5539 5539 5519 5520 5518 5528 5548 5534 5514 5488 5488 5485 5479 5480 5483 5504 5547 5545 5537 5528 5536 5546 5547 5545
5526 5526 5528 5531 5532 5539 5543 5538 5537 5533 5535 5546 5557 5556 5554 5553 5548 5542 5541 5537 5530 5512 5514 5510 5518 5519 5537 5540 5520 5502 5496 5478 5474 5477 5478 5494 5540 5535 5533 5538 5538 5539 5535 5531
5514 5516 5515 5517 5518 5518 5525 5527 5523 5520 5516 5529 5540 5545 5546 5546 5545 5536 5533 5539 5530 5522 5510 5506 5512 5515 5516 5522 5518 5517 5515 5525 5506 5507 5515 5544 5532 5540 5535 5530 5523 5521 5520 5515
5501 5500 5501 5502 5504 5503 5503 5509 5512 5505 5501 5515 5521 5532 5536 5534 5531 5528 5519 5519 5530 5526 5523 5511 5509 5507 5505 5508 5503 5525 5531 5527 5517 5521 5535 5533 5531 5526 5524 5522 5516 5515 5511 5506
5485 5487 5484 5486 5487 5487 5489 5488 5493 5494 5488 5486 5509 5520 5522 5524 5523 5518 5512 5509 5509 5506 5501 5500 5495 5494 5502 5498 5512 5509 5514 5516 5525 5517 5522 5520 5524 5516 5515 5513 5510 5502 5496 5491
5465 5470 5472 5472 5470 5474 5471 5474 5478 5478 5479 5480 5490 5500 5512 5511 5506 5503 5500 5495 5488 5484 5483 5483 5485 5486 5486 5491 5492 5512 5510 5518 5507 5517 5510 5503 5515 5509 5503 5496 5491 5491 5485 5480
5450 5452 5455 5455 5454 5456 5461 5459 5465 5464 5462 5463 5475 5491 5498 5489 5489 5485 5483 5481 5478 5477 5474 5473 5477 5478 5470 5473 5501 5514 5513 5505 5502 5506 5498 5492 5496 5494 5487 5482 5484 5481 5474 5466
5426 5429 5433 5437 5436 5439 5444 5450 5449 5447 5446 5448 5460 5469 5478 5477 5471 5466 5460 5458 5460 5458 5456 5460 5465 5460 5453 5459 5494 5504 5497 5483 5481 5483 5481 5482 5476 5476 5471 5463 5462 5457 5452 5447
5404 5407 5412 5415 5416 5422 5422 5429 5433 5430 5427 5430 5440 5458 5458 5455 5438 5441 5441 5437 5432 5436 5439 5445 5444 5445 5444 5461 5491 5480 5475 5475 5473 5469 5461 5458 5451 5450 5449 5443 5434 5429 5422 5419
5380 5384 5387 5395 5397 5397 5406 5410 5411 5410 5408 5403 5417 5436 5437 5434 5429 5422 5417 5414 5417 5415 5424 5427 5424 5437 5448 5466 5457 5454 5450 5449 5453 5450 5443 5432 5423 5418 5412 5408 5405 5403 5400 5397
5360 5362 5366 5372 5383 5387 5387 5387 5389 5388 5391 5391 5409 5424 5415 5408 5407 5400 5394 5393 5403 5411 5422 5404 5414 5443 5463 5448 5437 5435 5429 5426 5426 5425 5402 5396 5392 5388 5386 5385 5384 5383 5381 5379
5335 5340 5346 5359 5363 5365 5367 5370 5378 5379 5386 5389 5401 5403 5399 5392 5389 5387 5378 5383 5377 5383 5401 5400 5400 5416 5423 5421 5410 5402 5396 5393 5390 5383 5378 5377 5374 5372 5373 5373 5371 5370 5370 5368
5316 5320 5325 5332 5338 5339 5345 5355 5366 5374 5371 5374 5385 5384 5382 5377 5375 5371 5370 5375 5366 5372 5375 5381 5378 5393 5393 5388 5380 5371 5365 5361 5357 5355 5355 5358 5357 5357 5356 5355 5354 5352 5351 5350
5295 5294 5295 5305 5309 5323 5326 5329 5349 5352 5358 5357 5357 5359 5357 5358 5354 5355 5359 5362 5365 5361 5369 5369 5366 5367 5361 5355 5353 5351 5354 5352 5346 5345 5346 5344 5340 5338 5335 5334 5333 5333 5332 5334
5277 5282 5282 5289 5274 5314 5314 5321 5318 5335 5334 5332 5333 5328 5336 5336 5337 5340 5346 5338 5341 5341 5341 5328 5336 5338 5337 5334 5333 5335 5337 5334 5330 5331 5332 5330 5328 5329 5327 5322 5323 5317 5315 5316
5266 5270 5278 5267 5298 5293 5296 5301 5306 5306 5312 5312 5310 5311 5310 5297 5314 5313 5311 5299 5324 5324 5317 5322 5323 5325 5326 5324 5326 5324 5326 5324 5319 5317 5311 5309 5310 5310 5313 5314 5308 5305 5300 5296
5261 5263 5261 5276 5271 5264 5272 5268 5274 5282 5286 5289 5288 5276 5253 5258 5260 5261 5284 5253 5263 5292 5289 5299 5300 5302 5303 5304 5310 5308 5309 5308 5306 5305 5299 5298 5298 5297 5297 5299 5294 5290 5281 5277
5264 5263 5267 5267 5260 5271 5274 5272 5274 5278 5274 5267 5251 5246 5264 5254 5241 5240 5251 5254 5279 5284 5287 5287 5287 5291 5296 5296 5290 5288 5286 5288 5290 5289 5289 5288 5292 5290 5284 5282 5290 5281 5276 5272